| time (UTC) | temp F | wind direction | speed knots | gust knots | rain 1hr in | rain 24hr in | rain mn in | humidity % | barometer mb |
| 20260505101726 | 62 | 298 | 3.5 | 8.7 | 0.00 | 0.00 | 0.00 | 77 | 1011.5 |
| 20260505101224 | 63 | 297 | 2.6 | 8.7 | 0.00 | 0.00 | 0.00 | 74 | 1011.6 |
| 20260505100737 | 63 | 265 | 3.5 | 6.1 | 0.00 | 0.00 | 0.00 | 72 | 1011.4 |
| 20260505100229 | 63 | 242 | 1.7 | 6.1 | 0.00 | 0.00 | 0.00 | 71 | 1011.3 |
| 20260505095716 | 63 | 242 | 0.9 | 5.2 | 0.00 | 0.00 | 0.00 | 70 | 1011.2 |
| 20260505095250 | 64 | 266 | 2.6 | 6.1 | 0.00 | 0.00 | 0.00 | 69 | 1011.2 |
| 20260505094722 | 64 | 300 | 2.6 | 6.1 | 0.00 | 0.00 | 0.00 | 69 | 1010.9 |
| 20260505094236 | 64 | 239 | 1.7 | 7.0 | 0.00 | 0.00 | 0.00 | 69 | 1010.5 |
| 20260505093728 | 64 | 236 | 2.6 | 7.0 | 0.00 | 0.00 | 0.00 | 69 | 1010.4 |
| 20260505093222 | 64 | 228 | 3.5 | 10.4 | 0.00 | 0.00 | 0.00 | 69 | 1010.4 |
| 20260505092719 | 64 | 248 | 3.5 | 11.3 | 0.00 | 0.00 | 0.00 | 68 | 1010.2 |
| 20260505092213 | 64 | 248 | 3.5 | 11.3 | 0.00 | 0.00 | 0.00 | 68 | 1010.0 |
| 20260505091727 | 64 | 206 | 4.3 | 7.0 | 0.00 | 0.00 | 0.00 | 68 | 1009.9 |
| 20260505091220 | 64 | 193 | 3.5 | 7.0 | 0.00 | 0.00 | 0.00 | 68 | 1009.9 |
| 20260505090734 | 64 | 239 | 3.5 | 8.7 | 0.00 | 0.00 | 0.00 | 68 | 1009.8 |
| 20260505090226 | 64 | 205 | 4.3 | 13.0 | 0.00 | 0.00 | 0.00 | 68 | 1009.7 |
| 20260505085753 | 64 | 200 | 4.3 | 13.0 | 0.00 | 0.00 | 0.00 | 68 | 1009.5 |
| 20260505085245 | 64 | 228 | 3.5 | 7.8 | 0.00 | 0.00 | 0.00 | 68 | 1009.5 |
| 20260505084718 | 64 | 176 | 2.6 | 9.6 | 0.00 | 0.00 | 0.00 | 68 | 1009.3 |
| 20260505084232 | 64 | 212 | 5.2 | 9.6 | 0.00 | 0.00 | 0.00 | 68 | 1009.3 |
| 20260505083730 | 64 | 194 | 3.5 | 9.6 | 0.00 | 0.00 | 0.00 | 68 | 1009.3 |
| 20260505083243 | 64 | 207 | 5.2 | 9.6 | 0.00 | 0.00 | 0.00 | 68 | 1009.2 |
| 20260505082716 | 64 | 210 | 5.2 | 9.6 | 0.00 | 0.00 | 0.00 | 68 | 1009.1 |
| 20260505082229 | 64 | 203 | 4.3 | 7.8 | 0.00 | 0.00 | 0.00 | 68 | 1009.1 |
| 20260505081723 | 64 | 198 | 4.3 | 8.7 | 0.00 | 0.00 | 0.00 | 68 | 1009.0 |
| 20260505081236 | 64 | 219 | 4.3 | 8.7 | 0.00 | 0.00 | 0.00 | 68 | 1009.0 |
| 20260505080729 | 64 | 190 | 3.5 | 6.1 | 0.00 | 0.00 | 0.00 | 68 | 1009.0 |
| 20260505080242 | 64 | 195 | 3.5 | 6.1 | 0.00 | 0.00 | 0.00 | 68 | 1009.0 |
| 20260505075728 | 64 | 232 | 2.6 | 9.6 | 0.00 | 0.00 | 0.00 | 69 | 1009.0 |
| 20260505075221 | 64 | 203 | 3.5 | 11.3 | 0.00 | 0.00 | 0.00 | 68 | 1009.0 |
| 20260505074719 | 64 | 211 | 5.2 | 11.3 | 0.00 | 0.00 | 0.00 | 68 | 1008.9 |
| 20260505074212 | 64 | 202 | 4.3 | 7.0 | 0.00 | 0.00 | 0.00 | 69 | 1008.9 |
| 20260505073725 | 64 | 196 | 4.3 | 7.8 | 0.00 | 0.00 | 0.00 | 69 | 1008.9 |
| 20260505073240 | 64 | 206 | 3.5 | 7.8 | 0.00 | 0.00 | 0.00 | 69 | 1008.8 |
| 20260505072732 | 64 | 188 | 4.3 | 7.8 | 0.00 | 0.00 | 0.00 | 68 | 1008.8 |
| 20260505072225 | 64 | 197 | 3.5 | 7.0 | 0.00 | 0.00 | 0.00 | 69 | 1008.8 |
| 20260505071718 | 64 | 197 | 4.3 | 7.8 | 0.00 | 0.00 | 0.00 | 68 | 1008.8 |
| 20260505071232 | 64 | 167 | 5.2 | 7.8 | 0.00 | 0.00 | 0.00 | 68 | 1008.8 |
| 20260505070730 | 64 | 203 | 3.5 | 7.8 | 0.00 | 0.00 | 0.00 | 68 | 1009.0 |
| 20260505070223 | 64 | 193 | 4.3 | 7.0 | 0.00 | 0.00 | 0.00 | 69 | 1009.1 |
| 20260505065729 | 64 | 191 | 3.5 | 6.1 | 0.00 | 0.00 | 0.00 | 69 | 1009.1 |
| 20260505065223 | 64 | 211 | 3.5 | 7.8 | 0.00 | 0.00 | 0.00 | 68 | 1009.1 |
| 20260505064717 | 64 | 221 | 4.3 | 7.8 | 0.00 | 0.00 | 0.00 | 68 | 1009.1 |
| 20260505064230 | 64 | 229 | 2.6 | 6.1 | 0.00 | 0.00 | 0.00 | 69 | 1009.0 |
| 20260505063724 | 64 | 204 | 3.5 | 7.8 | 0.00 | 0.00 | 0.00 | 68 | 1009.0 |
| 20260505063218 | 64 | 200 | 4.3 | 7.8 | 0.00 | 0.00 | 0.00 | 68 | 1009.0 |
| 20260505062715 | 64 | 171 | 4.3 | 8.7 | 0.00 | 0.00 | 0.00 | 68 | 1009.0 |
| 20260505062249 | 64 | 205 | 4.3 | 8.7 | 0.00 | 0.00 | 0.00 | 68 | 1009.0 |
| 20260505061721 | 64 | 209 | 4.3 | 7.8 | 0.00 | 0.00 | 0.00 | 68 | 1008.9 |
| 20260505061214 | 64 | 204 | 5.2 | 7.8 | 0.00 | 0.00 | 0.00 | 68 | 1008.8 |
| 20260505060728 | 64 | 204 | 4.3 | 8.7 | 0.00 | 0.00 | 0.00 | 68 | 1008.9 |
| 20260505060221 | 64 | 193 | 4.3 | 8.7 | 0.00 | 0.00 | 0.00 | 68 | 1008.7 |
| 20260505055728 | 64 | 206 | 4.3 | 8.7 | 0.00 | 0.00 | 0.00 | 69 | 1008.7 |
| 20260505055221 | 64 | 215 | 4.3 | 7.0 | 0.00 | 0.00 | 0.00 | 69 | 1008.7 |
| 20260505054719 | 64 | 200 | 4.3 | 7.8 | 0.00 | 0.00 | 0.00 | 69 | 1008.5 |
| 20260505054232 | 64 | 195 | 4.3 | 7.8 | 0.00 | 0.00 | 0.00 | 70 | 1008.6 |
| 20260505053726 | 64 | 192 | 3.5 | 6.1 | 0.00 | 0.00 | 0.00 | 70 | 1008.6 |
| 20260505053219 | 64 | 203 | 3.5 | 6.1 | 0.00 | 0.00 | 0.00 | 70 | 1008.7 |
| 20260505052713 | 63 | 199 | 3.5 | 6.1 | 0.00 | 0.00 | 0.00 | 71 | 1008.7 |
| 20260505052227 | 63 | 181 | 3.5 | 6.1 | 0.00 | 0.00 | 0.00 | 71 | 1008.7 |
| 20260505051720 | 63 | 207 | 2.6 | 5.2 | 0.00 | 0.00 | 0.00 | 71 | 1008.7 |
| 20260505051214 | 63 | 185 | 2.6 | 4.3 | 0.00 | 0.00 | 0.00 | 71 | 1008.8 |
| 20260505050732 | 64 | 181 | 2.6 | 4.3 | 0.00 | 0.00 | 0.00 | 71 | 1008.8 |
| 20260505050225 | 64 | 176 | 2.6 | 6.1 | 0.00 | 0.00 | 0.00 | 70 | 1008.9 |
| 20260505041731 | 65 | 186 | 2.6 | 7.0 | 0.00 | 0.00 | 0.00 | 70 | 1009.1 |
| 20260505041226 | 65 | 210 | 3.5 | 7.0 | 0.00 | 0.00 | 0.00 | 70 | 1009.2 |
| 20260505040719 | 65 | 219 | 2.6 | 4.3 | 0.00 | 0.00 | 0.00 | 70 | 1009.2 |
| 20260505040213 | 65 | 197 | 2.6 | 4.3 | 0.00 | 0.00 | 0.00 | 70 | 1009.4 |
| 20260505035719 | 65 | 199 | 2.6 | 6.1 | 0.00 | 0.00 | 0.00 | 70 | 1009.4 |
| 20260505035213 | 65 | 214 | 2.6 | 6.1 | 0.00 | 0.00 | 0.00 | 70 | 1009.3 |
| 20260505034727 | 65 | 205 | 1.7 | 4.3 | 0.00 | 0.00 | 0.00 | 70 | 1009.3 |
| 20260505034244 | 65 | 198 | 2.6 | 4.3 | 0.00 | 0.00 | 0.00 | 70 | 1009.3 |
| 20260505033716 | 65 | 210 | 1.7 | 4.3 | 0.00 | 0.00 | 0.00 | 70 | 1009.1 |
| 20260505033230 | 65 | 198 | 2.6 | 4.3 | 0.00 | 0.00 | 0.00 | 70 | 1009.1 |
| 20260505032724 | 65 | 214 | 1.7 | 4.3 | 0.00 | 0.00 | 0.00 | 70 | 1009.0 |
| 20260505032238 | 66 | 205 | 1.7 | 6.1 | 0.00 | 0.00 | 0.00 | 70 | 1009.0 |
| 20260505031750 | 66 | 204 | 2.6 | 6.1 | 0.00 | 0.00 | 0.00 | 69 | 1008.9 |
| 20260505031221 | 66 | 195 | 3.5 | 5.2 | 0.00 | 0.00 | 0.00 | 70 | 1008.9 |
| 20260505030715 | 66 | 190 | 3.5 | 5.2 | 0.00 | 0.00 | 0.00 | 69 | 1008.9 |
| 20260505030229 | 66 | 212 | 3.5 | 5.2 | 0.00 | 0.00 | 0.00 | 70 | 1008.9 |
| 20260505025720 | 66 | 206 | 2.6 | 4.3 | 0.00 | 0.00 | 0.00 | 70 | 1008.8 |
| 20260505025214 | 66 | 205 | 2.6 | 4.3 | 0.00 | 0.00 | 0.00 | 70 | 1008.8 |
| 20260505024727 | 66 | 198 | 2.6 | 4.3 | 0.00 | 0.00 | 0.00 | 70 | 1008.8 |
| 20260505024221 | 66 | 199 | 2.6 | 3.5 | 0.00 | 0.00 | 0.00 | 70 | 1008.7 |
| 20260505023735 | 66 | 198 | 1.7 | 3.5 | 0.00 | 0.00 | 0.00 | 69 | 1008.6 |
| 20260505023229 | 66 | 196 | 1.7 | 3.5 | 0.00 | 0.00 | 0.00 | 69 | 1008.6 |
| 20260505022722 | 67 | 196 | 2.6 | 3.5 | 0.00 | 0.00 | 0.00 | 68 | 1008.5 |
| 20260505022215 | 67 | 204 | 1.7 | 2.6 | 0.00 | 0.00 | 0.00 | 68 | 1008.4 |
| 20260505021748 | 67 | 201 | 1.7 | 3.5 | 0.00 | 0.00 | 0.00 | 67 | 1008.3 |
| 20260505021241 | 67 | 203 | 1.7 | 3.5 | 0.00 | 0.00 | 0.00 | 67 | 1008.2 |
| 20260505020738 | 68 | 195 | 1.7 | 4.3 | 0.00 | 0.00 | 0.00 | 67 | 1008.0 |
| 20260505020231 | 68 | 193 | 2.6 | 5.2 | 0.00 | 0.00 | 0.00 | 66 | 1007.8 |
| 20260505015719 | 68 | 198 | 2.6 | 5.2 | 0.00 | 0.00 | 0.00 | 66 | 1007.7 |
| 20260505015232 | 68 | 188 | 2.6 | 5.2 | 0.00 | 0.00 | 0.00 | 65 | 1007.6 |
| 20260505014744 | 68 | 205 | 3.5 | 5.2 | 0.00 | 0.00 | 0.00 | 65 | 1007.6 |
| 20260505014216 | 68 | 199 | 2.6 | 4.3 | 0.00 | 0.00 | 0.00 | 64 | 1007.6 |
| 20260505013729 | 69 | 196 | 2.6 | 3.5 | 0.00 | 0.00 | 0.00 | 64 | 1007.7 |
| 20260505013221 | 69 | 193 | 2.6 | 4.3 | 0.00 | 0.00 | 0.00 | 63 | 1007.7 |
| 20260505012714 | 69 | 191 | 2.6 | 5.2 | 0.00 | 0.00 | 0.00 | 63 | 1007.7 |
| 20260505012246 | 69 | 193 | 2.6 | 5.2 | 0.00 | 0.00 | 0.00 | 62 | 1007.6 |
| 20260505011722 | 70 | 203 | 1.7 | 3.5 | 0.00 | 0.00 | 0.00 | 62 | 1007.6 |
| 20260505011215 | 70 | 196 | 2.6 | 4.3 | 0.00 | 0.00 | 0.00 | 62 | 1007.4 |
| 20260505010728 | 70 | 207 | 2.6 | 6.1 | 0.00 | 0.00 | 0.00 | 61 | 1007.5 |
| 20260505010221 | 71 | 195 | 3.5 | 6.1 | 0.00 | 0.00 | 0.00 | 60 | 1007.5 |
| 20260505005727 | 71 | 187 | 3.5 | 5.2 | 0.00 | 0.00 | 0.00 | 60 | 1007.6 |
| 20260505005218 | 71 | 180 | 3.5 | 5.2 | 0.00 | 0.00 | 0.00 | 60 | 1007.7 |
| 20260505004730 | 71 | 198 | 3.5 | 5.2 | 0.00 | 0.00 | 0.00 | 59 | 1007.6 |
| 20260505004223 | 71 | 203 | 2.6 | 4.3 | 0.00 | 0.00 | 0.00 | 59 | 1007.6 |
| 20260505003720 | 72 | 200 | 2.6 | 5.2 | 0.00 | 0.00 | 0.00 | 59 | 1007.7 |
| 20260505003213 | 72 | 206 | 2.6 | 5.2 | 0.00 | 0.00 | 0.00 | 58 | 1007.6 |
| 20260505002726 | 72 | 210 | 3.5 | 5.2 | 0.00 | 0.00 | 0.00 | 57 | 1007.7 |
| 20260505002219 | 73 | 199 | 2.6 | 5.2 | 0.00 | 0.00 | 0.00 | 58 | 1007.8 |
| 20260505001732 | 73 | 210 | 2.6 | 7.0 | 0.00 | 0.00 | 0.00 | 57 | 1007.8 |
| 20260505001226 | 73 | 199 | 3.5 | 8.7 | 0.00 | 0.00 | 0.00 | 56 | 1007.8 |
| 20260505000719 | 73 | 203 | 4.3 | 8.7 | 0.00 | 0.00 | 0.00 | 57 | 1007.8 |
| 20260505000218 | 73 | 223 | 3.5 | 7.0 | 0.00 | 0.00 | 0.00 | 57 | 1007.8 |
| 20260504235722 | 74 | 200 | 4.3 | 9.6 | 0.00 | 0.00 | 0.00 | 56 | 1007.8 |
| 20260504235216 | 74 | 207 | 6.1 | 9.6 | 0.00 | 0.00 | 0.00 | 56 | 1007.7 |
| 20260504234729 | 74 | 223 | 4.3 | 9.6 | 0.00 | 0.00 | 0.00 | 57 | 1007.6 |
| 20260504234221 | 75 | 150 | 5.2 | 8.7 | 0.00 | 0.00 | 0.00 | 56 | 1007.6 |
| 20260504233713 | 75 | 208 | 4.3 | 11.3 | 0.00 | 0.00 | 0.00 | 56 | 1007.7 |
| 20260504233246 | 75 | 202 | 3.5 | 12.2 | 0.00 | 0.00 | 0.00 | 56 | 1007.9 |
| 20260504232718 | 75 | 187 | 4.3 | 12.2 | 0.00 | 0.00 | 0.00 | 55 | 1008.0 |
| 20260504232230 | 75 | 173 | 5.2 | 8.7 | 0.00 | 0.00 | 0.00 | 56 | 1008.0 |
| 20260504231727 | 75 | 204 | 4.3 | 9.6 | 0.00 | 0.00 | 0.00 | 56 | 1008.2 |
| 20260504231219 | 75 | 204 | 4.3 | 9.6 | 0.00 | 0.00 | 0.00 | 57 | 1008.3 |
| 20260504230731 | 75 | 281 | 4.3 | 10.4 | 0.00 | 0.00 | 0.00 | 56 | 1008.4 |
| 20260504230223 | 75 | 178 | 4.3 | 12.2 | 0.00 | 0.00 | 0.00 | 55 | 1008.5 |
| 20260504225728 | 76 | 189 | 7.0 | 12.2 | 0.00 | 0.00 | 0.00 | 54 | 1008.6 |
| 20260504225220 | 76 | 188 | 5.2 | 8.7 | 0.00 | 0.00 | 0.00 | 53 | 1008.6 |
| 20260504224732 | 76 | 204 | 2.6 | 11.3 | 0.00 | 0.00 | 0.00 | 54 | 1008.6 |
| 20260504224245 | 76 | 232 | 4.3 | 11.3 | 0.00 | 0.00 | 0.00 | 53 | 1008.6 |
| 20260504223716 | 75 | 212 | 6.1 | 11.3 | 0.00 | 0.00 | 0.00 | 52 | 1008.7 |
| 20260504223249 | 75 | 198 | 3.5 | 13.0 | 0.00 | 0.00 | 0.00 | 53 | 1008.7 |
| 20260504222725 | 76 | 236 | 5.2 | 12.2 | 0.00 | 0.00 | 0.00 | 52 | 1008.8 |
| 20260504222218 | 76 | 200 | 7.0 | 12.2 | 0.00 | 0.00 | 0.00 | 51 | 1008.8 |
| 20260504221730 | 76 | 227 | 7.0 | 12.2 | 0.00 | 0.00 | 0.00 | 51 | 1008.7 |
| 20260504221242 | 75 | 245 | 5.2 | 10.4 | 0.00 | 0.00 | 0.00 | 54 | 1008.9 |
| 20260504220714 | 76 | 226 | 6.1 | 13.0 | 0.00 | 0.00 | 0.00 | 53 | 1008.9 |
| 20260504220227 | 76 | 257 | 7.8 | 13.9 | 0.00 | 0.00 | 0.00 | 52 | 1008.8 |
| 20260504215752 | 76 | 220 | 7.0 | 11.3 | 0.00 | 0.00 | 0.00 | 54 | 1008.9 |
| 20260504215223 | 76 | 243 | 3.5 | 10.4 | 0.00 | 0.00 | 0.00 | 55 | 1008.9 |
| 20260504214716 | 75 | 203 | 4.3 | 10.4 | 0.00 | 0.00 | 0.00 | 55 | 1009.0 |
| 20260504214232 | 76 | 229 | 6.1 | 12.2 | 0.00 | 0.00 | 0.00 | 54 | 1009.0 |
| 20260504213725 | 76 | 205 | 7.0 | 12.2 | 0.00 | 0.00 | 0.00 | 52 | 1009.0 |
| 20260504213238 | 76 | 217 | 7.0 | 12.2 | 0.00 | 0.00 | 0.00 | 51 | 1009.0 |
| 20260504212750 | 76 | 263 | 4.3 | 12.2 | 0.00 | 0.00 | 0.00 | 52 | 1009.1 |
| 20260504212221 | 76 | 185 | 5.2 | 12.2 | 0.00 | 0.00 | 0.00 | 53 | 1009.2 |
| 20260504211753 | 76 | 257 | 6.1 | 15.6 | 0.00 | 0.00 | 0.00 | 52 | 1009.2 |
| 20260504211225 | 77 | 217 | 7.0 | 15.6 | 0.00 | 0.00 | 0.00 | 51 | 1009.2 |
| 20260504210718 | 77 | 222 | 6.1 | 11.3 | 0.00 | 0.00 | 0.00 | 51 | 1009.1 |
| 20260504210229 | 78 | 236 | 6.1 | 10.4 | 0.00 | 0.00 | 0.00 | 52 | 1009.1 |
| 20260504205735 | 77 | 221 | 3.5 | 13.0 | 0.00 | 0.00 | 0.00 | 52 | 1009.0 |
| 20260504205227 | 77 | 213 | 6.1 | 12.2 | 0.00 | 0.00 | 0.00 | 54 | 1009.0 |
| 20260504204723 | 78 | 221 | 6.1 | 12.2 | 0.00 | 0.00 | 0.00 | 53 | 1009.0 |
| 20260504204216 | 77 | 212 | 2.6 | 10.4 | 0.00 | 0.00 | 0.00 | 56 | 1009.1 |
| 20260504203728 | 77 | 228 | 5.2 | 10.4 | 0.00 | 0.00 | 0.00 | 53 | 1009.2 |
| 20260504203220 | 78 | 207 | 4.3 | 8.7 | 0.00 | 0.00 | 0.00 | 53 | 1009.1 |
| 20260504202732 | 77 | 200 | 3.5 | 11.3 | 0.00 | 0.00 | 0.00 | 54 | 1009.3 |
| 20260504202245 | 78 | 214 | 6.1 | 11.3 | 0.00 | 0.00 | 0.00 | 55 | 1009.2 |
| 20260504201716 | 78 | 229 | 4.3 | 12.2 | 0.00 | 0.00 | 0.00 | 56 | 1009.4 |
| 20260504201229 | 78 | 224 | 5.2 | 12.2 | 0.00 | 0.00 | 0.00 | 53 | 1009.4 |
| 20260504200726 | 77 | 269 | 2.6 | 12.2 | 0.00 | 0.00 | 0.00 | 57 | 1009.7 |
| 20260504200218 | 77 | 203 | 4.3 | 9.6 | 0.00 | 0.00 | 0.00 | 58 | 1009.8 |
| 20260504195725 | 76 | 259 | 5.2 | 8.7 | 0.00 | 0.00 | 0.00 | 57 | 1009.8 |
| 20260504195217 | 77 | 218 | 3.5 | 10.4 | 0.00 | 0.00 | 0.00 | 58 | 1009.9 |
| 20260504194729 | 77 | 237 | 5.2 | 10.4 | 0.00 | 0.00 | 0.00 | 56 | 1010.0 |
| 20260504194222 | 77 | 251 | 2.6 | 9.6 | 0.00 | 0.00 | 0.00 | 55 | 1010.0 |
| 20260504193734 | 77 | 236 | 4.3 | 12.2 | 0.00 | 0.00 | 0.00 | 57 | 1010.0 |
| 20260504193228 | 77 | 213 | 2.6 | 12.2 | 0.00 | 0.00 | 0.00 | 59 | 1010.1 |
| 20260504192721 | 76 | 240 | 4.3 | 12.2 | 0.00 | 0.00 | 0.00 | 58 | 1010.2 |
| 20260504192218 | 76 | 226 | 5.2 | 12.2 | 0.00 | 0.00 | 0.00 | 58 | 1010.2 |
| 20260504191731 | 76 | 229 | 5.2 | 10.4 | 0.00 | 0.00 | 0.00 | 60 | 1010.3 |
| 20260504191224 | 76 | 211 | 6.1 | 10.4 | 0.00 | 0.00 | 0.00 | 60 | 1010.4 |
| 20260504190717 | 75 | 228 | 3.5 | 11.3 | 0.00 | 0.00 | 0.00 | 61 | 1010.6 |
| 20260504190230 | 74 | 174 | 5.2 | 11.3 | 0.00 | 0.00 | 0.00 | 58 | 1010.6 |
| 20260504185715 | 74 | 219 | 3.5 | 14.8 | 0.00 | 0.00 | 0.00 | 59 | 1010.6 |
| 20260504185229 | 75 | 250 | 6.1 | 14.8 | 0.00 | 0.00 | 0.00 | 58 | 1010.7 |
| 20260504184722 | 76 | 210 | 6.1 | 10.4 | 0.00 | 0.00 | 0.00 | 56 | 1010.7 |
| 20260504184220 | 75 | 229 | 3.5 | 10.4 | 0.00 | 0.00 | 0.00 | 60 | 1010.6 |
| 20260504183714 | 76 | 258 | 4.3 | 10.4 | 0.00 | 0.00 | 0.00 | 56 | 1010.6 |
| 20260504183227 | 76 | 238 | 5.2 | 13.0 | 0.00 | 0.00 | 0.00 | 58 | 1010.5 |
| 20260504182719 | 75 | 237 | 5.2 | 13.0 | 0.00 | 0.00 | 0.00 | 59 | 1010.5 |
| 20260504182232 | 75 | 229 | 4.3 | 9.6 | 0.00 | 0.00 | 0.00 | 59 | 1010.4 |
| 20260504181745 | 74 | 201 | 5.2 | 11.3 | 0.00 | 0.00 | 0.00 | 62 | 1010.2 |
| 20260504181216 | 74 | 212 | 6.1 | 11.3 | 0.00 | 0.00 | 0.00 | 61 | 1010.3 |
| 20260504180729 | 74 | 248 | 5.2 | 13.0 | 0.00 | 0.00 | 0.00 | 60 | 1010.4 |
| 20260504180225 | 73 | 233 | 6.1 | 13.0 | 0.00 | 0.00 | 0.00 | 61 | 1010.4 |
| 20260504175750 | 73 | 193 | 7.8 | 12.2 | 0.00 | 0.00 | 0.00 | 62 | 1010.3 |
| 20260504175222 | 72 | 212 | 6.1 | 12.2 | 0.00 | 0.00 | 0.00 | 62 | 1010.4 |
| 20260504174715 | 72 | 241 | 5.2 | 9.6 | 0.00 | 0.00 | 0.00 | 64 | 1010.4 |
| 20260504174229 | 71 | 203 | 5.2 | 11.3 | 0.00 | 0.00 | 0.00 | 66 | 1010.4 |
| 20260504173721 | 71 | 217 | 7.0 | 12.2 | 0.00 | 0.00 | 0.00 | 64 | 1010.5 |
| 20260504173213 | 71 | 207 | 6.1 | 12.2 | 0.00 | 0.00 | 0.00 | 64 | 1010.5 |
| 20260504172746 | 70 | 219 | 7.8 | 12.2 | 0.00 | 0.00 | 0.00 | 65 | 1010.5 |
| 20260504172237 | 70 | 177 | 4.3 | 9.6 | 0.00 | 0.00 | 0.00 | 66 | 1010.7 |
| 20260504171729 | 70 | 199 | 5.2 | 9.6 | 0.00 | 0.00 | 0.00 | 66 | 1010.7 |
| 20260504171226 | 70 | 205 | 7.0 | 10.4 | 0.00 | 0.00 | 0.00 | 65 | 1010.7 |
| 20260504170719 | 69 | 223 | 4.3 | 11.3 | 0.00 | 0.00 | 0.00 | 67 | 1010.8 |
| 20260504170232 | 68 | 181 | 7.0 | 13.0 | 0.00 | 0.00 | 0.00 | 67 | 1010.7 |
| 20260504160219 | 63 | 263 | 4.3 | 10.4 | 0.00 | 0.00 | 0.00 | 72 | 1012.0 |
| 20260504150737 | 64 | 208 | 7.0 | 11.3 | 0.00 | 0.00 | 0.00 | 70 | 1011.3 |
| 20260504150233 | 64 | 246 | 5.2 | 13.0 | 0.00 | 0.00 | 0.00 | 70 | 1011.3 |
| 20260504141220 | 61 | 182 | 2.6 | 5.2 | 0.00 | 0.00 | 0.00 | 75 | 1010.8 |
| 20260504140713 | 61 | 186 | 2.6 | 5.2 | 0.00 | 0.00 | 0.00 | 76 | 1010.7 |
| 20260504140226 | 60 | 195 | 0.9 | 6.1 | 0.00 | 0.00 | 0.00 | 77 | 1011.0 |
| 20260504130717 | 54 | 205 | 1.7 | 7.8 | 0.00 | 0.00 | 0.00 | 79 | 1012.0 |
| 20260504130230 | 54 | 205 | 3.5 | 7.8 | 0.00 | 0.00 | 0.00 | 79 | 1012.1 |
| 20260504120239 | 53 | 198 | 3.5 | 6.1 | 0.00 | 0.00 | 0.00 | 81 | 1012.3 |
| 20260504110222 | 54 | 210 | 3.5 | 5.2 | 0.00 | 0.00 | 0.00 | 76 | 1012.3 |